Time,TemperatureF,DewpointF,PressureIn,WindDirection,WindDirectionDegrees,WindSpeedMPH,WindSpeedGustMPH,Humidity,HourlyPrecipIn,Conditions,Clouds,dailyrainin,SoftwareType,DateUTC
2013-04-13 00:00:00,38.0,-54.6,29.80,NE,45,2.0,12.0,1,-0.58,,,0.00,Weather View 32 v70,2013-04-13 04:00:00,
2013-04-13 00:05:00,37.0,-55.2,29.81,ENE,67,3.0,12.0,1,-0.58,,,0.00,Weather View 32 v70,2013-04-13 04:05:00,
2013-04-13 00:10:00,37.0,-55.2,29.81,NNE,22,2.0,12.0,1,-0.58,,,0.00,Weather View 32 v70,2013-04-13 04:10:00,
2013-04-13 00:15:00,37.0,-55.2,29.81,East,90,6.0,12.0,1,-0.58,,,0.00,Weather View 32 v70,2013-04-13 04:15:00,
2013-04-13 00:20:00,37.0,-55.2,29.80,ENE,67,2.0,12.0,1,-0.58,,,0.00,Weather View 32 v70,2013-04-13 04:20:00,
2013-04-13 00:25:00,37.0,-55.2,29.80,ENE,67,5.0,12.0,1,-0.58,,,0.00,Weather View 32 v70,2013-04-13 04:25:00,
2013-04-13 00:30:00,37.0,-55.2,29.80,ENE,67,6.0,12.0,1,-0.58,,,0.00,Weather View 32 v70,2013-04-13 04:30:00,
2013-04-13 00:35:00,37.0,-55.2,29.79,NE,45,4.0,12.0,1,-0.58,,,0.00,Weather View 32 v70,2013-04-13 04:35:00,
2013-04-13 00:40:00,37.0,-55.2,29.79,ENE,67,3.0,12.0,1,-0.58,,,0.00,Weather View 32 v70,2013-04-13 04:40:00,
2013-04-13 00:45:00,37.0,-55.2,29.79,NNE,22,1.0,12.0,1,-0.58,,,0.00,Weather View 32 v70,2013-04-13 04:45:00,
2013-04-13 00:50:00,37.0,-55.2,29.79,ENE,67,9.0,10.0,1,-0.58,,,0.00,Weather View 32 v70,2013-04-13 04:50:00,
2013-04-13 00:55:00,37.0,-55.2,29.79,North,360,1.0,10.0,1,-0.58,,,0.00,Weather View 32 v70,2013-04-13 04:55:00,
2013-04-13 01:00:00,37.0,-55.2,29.79,WSW,247,0.0,10.0,1,0.00,,,0.00,Weather View 32 v70,2013-04-13 05:00:00,
2013-04-13 01:05:00,37.0,-55.2,29.81,NE,45,3.0,10.0,1,0.00,,,0.00,Weather View 32 v70,2013-04-13 05:05:00,
2013-04-13 01:10:00,37.0,-55.2,29.81,ENE,67,3.0,10.0,1,0.00,,,0.00,Weather View 32 v70,2013-04-13 05:10:00,
2013-04-13 01:15:00,37.0,-55.2,29.81,NNE,22,2.0,10.0,1,0.00,,,0.00,Weather View 32 v70,2013-04-13 05:15:00,
2013-04-13 01:20:00,37.0,-55.2,29.80,NE,45,6.0,10.0,1,0.00,,,0.00,Weather View 32 v70,2013-04-13 05:20:00,
2013-04-13 01:25:00,37.0,-55.2,29.80,ENE,67,2.0,10.0,1,0.00,,,0.00,Weather View 32 v70,2013-04-13 05:25:00,
2013-04-13 01:30:00,37.0,-55.2,29.80,ENE,67,1.0,10.0,1,0.00,,,0.00,Weather View 32 v70,2013-04-13 05:30:00,
2013-04-13 01:35:00,37.0,-55.2,29.80,NNE,22,5.0,10.0,1,0.00,,,0.00,Weather View 32 v70,2013-04-13 05:35:00,
2013-04-13 01:40:00,37.0,-55.2,29.80,ENE,67,9.0,10.0,1,0.00,,,0.00,Weather View 32 v70,2013-04-13 05:40:00,
2013-04-13 01:45:00,37.0,-55.2,29.81,SSW,202,1.0,10.0,1,0.00,,,0.00,Weather View 32 v70,2013-04-13 05:45:00,
2013-04-13 01:50:00,37.0,-55.2,29.80,NE,45,4.0,10.0,1,0.00,,,0.00,Weather View 32 v70,2013-04-13 05:50:00,
2013-04-13 01:55:00,37.0,-55.2,29.78,ENE,67,4.0,10.0,1,0.00,,,0.00,Weather View 32 v70,2013-04-13 05:55:00,
2013-04-13 02:00:00,37.0,-55.2,29.80,ENE,67,4.0,10.0,1,0.00,,,0.00,Weather View 32 v70,2013-04-13 06:00:00,
2013-04-13 02:05:00,37.0,-55.2,29.80,NE,45,4.0,10.0,1,0.00,,,0.00,Weather View 32 v70,2013-04-13 06:05:00,
2013-04-13 02:10:00,37.0,-55.2,29.81,NE,45,4.0,10.0,1,0.00,,,0.00,Weather View 32 v70,2013-04-13 06:10:00,
2013-04-13 02:15:00,37.0,-55.2,29.80,East,90,5.0,10.0,1,0.00,,,0.00,Weather View 32 v70,2013-04-13 06:15:00,
2013-04-13 02:20:00,37.0,-55.2,29.80,ESE,112,0.0,10.0,1,0.00,,,0.00,Weather View 32 v70,2013-04-13 06:20:00,
2013-04-13 02:25:00,37.0,-55.2,29.80,ENE,67,5.0,10.0,1,0.00,,,0.00,Weather View 32 v70,2013-04-13 06:25:00,
2013-04-13 02:30:00,37.0,-55.2,29.81,East,90,3.0,10.0,1,0.00,,,0.00,Weather View 32 v70,2013-04-13 06:30:00,
2013-04-13 02:35:00,37.0,-55.2,29.82,ENE,67,5.0,10.0,1,0.00,,,0.00,Weather View 32 v70,2013-04-13 06:35:00,
2013-04-13 02:40:00,37.0,-55.2,29.83,ENE,67,1.0,10.0,1,0.00,,,0.00,Weather View 32 v70,2013-04-13 06:40:00,
2013-04-13 02:46:00,37.0,-55.2,29.83,NNE,22,5.0,10.0,1,0.00,,,0.01,Weather View 32 v70,2013-04-13 06:46:00,
2013-04-13 02:51:00,37.0,-55.2,29.84,NE,45,5.0,10.0,1,0.02,,,0.02,Weather View 32 v70,2013-04-13 06:51:00,
2013-04-13 02:56:00,37.0,-55.2,29.82,NE,45,5.0,10.0,1,0.02,,,0.03,Weather View 32 v70,2013-04-13 06:56:00,
2013-04-13 03:02:00,37.0,-55.2,29.79,ENE,67,5.0,10.0,1,0.03,,,0.03,Weather View 32 v70,2013-04-13 07:02:00,
2013-04-13 03:07:00,36.0,-55.8,29.78,NE,45,5.0,10.0,1,0.04,,,0.04,Weather View 32 v70,2013-04-13 07:07:00,
2013-04-13 03:12:00,36.0,-55.8,29.78,ENE,67,8.0,11.0,1,0.04,,,0.04,Weather View 32 v70,2013-04-13 07:12:00,
2013-04-13 03:17:00,36.0,-55.8,29.76,ENE,67,4.0,13.0,1,0.04,,,0.04,Weather View 32 v70,2013-04-13 07:17:00,
2013-04-13 03:22:00,36.0,-55.8,29.75,ENE,67,6.0,13.0,1,0.04,,,0.04,Weather View 32 v70,2013-04-13 07:22:00,
2013-04-13 03:27:00,36.0,-55.8,29.77,ENE,67,7.0,13.0,1,0.04,,,0.04,Weather View 32 v70,2013-04-13 07:27:00,
2013-04-13 03:32:00,36.0,-55.8,29.77,SSE,157,2.0,13.0,1,0.04,,,0.04,Weather View 32 v70,2013-04-13 07:32:00,
2013-04-13 03:37:00,36.0,-55.8,29.78,ENE,67,2.0,13.0,1,0.05,,,0.05,Weather View 32 v70,2013-04-13 07:37:00,
2013-04-13 03:42:00,36.0,-55.8,29.78,NE,45,1.0,13.0,1,0.05,,,0.05,Weather View 32 v70,2013-04-13 07:42:00,
2013-04-13 03:47:00,36.0,-55.8,29.76,NE,45,3.0,13.0,1,0.04,,,0.05,Weather View 32 v70,2013-04-13 07:47:00,
2013-04-13 03:52:00,36.0,-55.8,29.77,ENE,67,2.0,13.0,1,0.03,,,0.05,Weather View 32 v70,2013-04-13 07:52:00,
2013-04-13 03:57:00,36.0,-55.8,29.77,NE,45,6.0,13.0,1,0.02,,,0.05,Weather View 32 v70,2013-04-13 07:57:00,
2013-04-13 04:02:00,36.0,-55.8,29.76,ENE,67,5.0,13.0,1,0.02,,,0.05,Weather View 32 v70,2013-04-13 08:02:00,
2013-04-13 04:07:00,36.0,-55.8,29.76,ENE,67,3.0,13.0,1,0.01,,,0.05,Weather View 32 v70,2013-04-13 08:07:00,
2013-04-13 04:13:00,36.0,-55.8,29.76,ENE,67,7.0,13.0,1,0.01,,,0.05,Weather View 32 v70,2013-04-13 08:13:00,
2013-04-13 04:18:00,36.0,-55.8,29.76,East,90,2.0,13.0,1,0.01,,,0.05,Weather View 32 v70,2013-04-13 08:18:00,
2013-04-13 04:23:00,36.0,-44.6,29.76,ENE,67,6.0,13.0,2,0.01,,,0.05,Weather View 32 v70,2013-04-13 08:23:00,
2013-04-13 04:28:00,36.0,-44.6,29.77,ENE,67,3.0,13.0,2,0.01,,,0.05,Weather View 32 v70,2013-04-13 08:28:00,
2013-04-13 04:33:00,36.0,-44.6,29.77,ENE,67,4.0,11.0,2,0.01,,,0.05,Weather View 32 v70,2013-04-13 08:33:00,
2013-04-13 04:38:00,36.0,-37.6,29.78,ENE,67,1.0,11.0,3,0.00,,,0.05,Weather View 32 v70,2013-04-13 08:38:00,
2013-04-13 04:43:00,35.0,-38.3,29.78,ENE,67,0.0,11.0,3,0.00,,,0.05,Weather View 32 v70,2013-04-13 08:43:00,
2013-04-13 04:48:00,35.0,-38.3,29.78,ENE,67,2.0,11.0,3,0.00,,,0.05,Weather View 32 v70,2013-04-13 08:48:00,
2013-04-13 04:53:00,35.0,-38.3,29.78,East,90,3.0,11.0,3,0.00,,,0.05,Weather View 32 v70,2013-04-13 08:53:00,
2013-04-13 04:58:00,35.0,-33.3,29.78,NNE,22,1.0,11.0,4,0.00,,,0.05,Weather View 32 v70,2013-04-13 08:58:00,
2013-04-13 05:03:00,35.0,-38.3,29.79,ENE,67,2.0,11.0,3,0.00,,,0.05,Weather View 32 v70,2013-04-13 09:03:00,
2013-04-13 05:08:00,35.0,-38.3,29.80,ENE,67,1.0,11.0,3,0.00,,,0.05,Weather View 32 v70,2013-04-13 09:08:00,
2013-04-13 05:13:00,35.0,-38.3,29.79,SSW,202,0.0,11.0,3,0.00,,,0.05,Weather View 32 v70,2013-04-13 09:13:00,
2013-04-13 05:18:00,35.0,-38.3,29.80,ENE,67,6.0,9.0,3,0.00,,,0.05,Weather View 32 v70,2013-04-13 09:18:00,
2013-04-13 05:23:00,35.0,-38.3,29.79,ENE,67,4.0,9.0,3,0.00,,,0.05,Weather View 32 v70,2013-04-13 09:23:00,
2013-04-13 05:28:00,35.0,-38.3,29.79,ENE,67,2.0,8.0,3,0.00,,,0.05,Weather View 32 v70,2013-04-13 09:28:00,
2013-04-13 05:33:00,35.0,-33.3,29.80,East,90,0.0,9.0,4,0.00,,,0.05,Weather View 32 v70,2013-04-13 09:33:00,
2013-04-13 05:38:00,35.0,-33.3,29.79,ENE,67,5.0,9.0,4,0.00,,,0.05,Weather View 32 v70,2013-04-13 09:38:00,
2013-04-13 05:43:00,35.0,-33.3,29.79,NNE,22,2.0,9.0,4,0.00,,,0.05,Weather View 32 v70,2013-04-13 09:43:00,
2013-04-13 05:48:00,35.0,-33.3,29.79,ENE,67,3.0,9.0,4,0.00,,,0.05,Weather View 32 v70,2013-04-13 09:48:00,
2013-04-13 05:53:00,35.0,-33.3,29.80,ENE,67,1.0,9.0,4,0.00,,,0.05,Weather View 32 v70,2013-04-13 09:53:00,
2013-04-13 05:58:00,35.0,-33.3,29.80,ENE,67,3.0,9.0,4,0.00,,,0.05,Weather View 32 v70,2013-04-13 09:58:00,
2013-04-13 06:03:00,35.0,-33.3,29.80,East,90,1.0,9.0,4,0.00,,,0.05,Weather View 32 v70,2013-04-13 10:03:00,
2013-04-13 06:08:00,35.0,-33.3,29.80,East,90,2.0,9.0,4,0.00,,,0.05,Weather View 32 v70,2013-04-13 10:08:00,
2013-04-13 06:13:00,35.0,-33.3,29.81,ENE,67,2.0,9.0,4,0.00,,,0.05,Weather View 32 v70,2013-04-13 10:13:00,
2013-04-13 06:18:00,35.0,-33.3,29.81,NE,45,0.0,9.0,4,0.00,,,0.05,Weather View 32 v70,2013-04-13 10:18:00,
2013-04-13 06:23:00,35.0,-33.3,29.81,NE,45,1.0,9.0,4,0.00,,,0.05,Weather View 32 v70,2013-04-13 10:23:00,
2013-04-13 06:28:00,35.0,-33.3,29.81,ENE,67,2.0,9.0,4,0.00,,,0.05,Weather View 32 v70,2013-04-13 10:28:00,
2013-04-13 06:33:00,35.0,-33.3,29.81,NW,315,1.0,7.0,4,0.00,,,0.05,Weather View 32 v70,2013-04-13 10:33:00,
2013-04-13 06:39:00,35.0,-29.2,29.82,ENE,67,0.0,7.0,5,0.00,,,0.05,Weather View 32 v70,2013-04-13 10:39:00,
2013-04-13 06:44:00,35.0,-25.9,29.82,NNE,22,0.0,8.0,6,0.00,,,0.05,Weather View 32 v70,2013-04-13 10:44:00,
2013-04-13 06:49:00,35.0,-23.0,29.82,ENE,67,3.0,8.0,7,0.00,,,0.05,Weather View 32 v70,2013-04-13 10:49:00,
2013-04-13 06:54:00,35.0,-25.9,29.82,ENE,67,2.0,8.0,6,0.00,,,0.05,Weather View 32 v70,2013-04-13 10:54:00,
2013-04-13 06:59:00,35.0,-29.2,29.83,ENE,67,2.0,8.0,5,0.00,,,0.05,Weather View 32 v70,2013-04-13 10:59:00,
2013-04-13 07:04:00,35.0,-25.9,29.83,ENE,67,2.0,8.0,6,0.00,,,0.05,Weather View 32 v70,2013-04-13 11:04:00,
2013-04-13 07:09:00,35.0,-25.9,29.83,ENE,67,3.0,8.0,6,0.00,,,0.05,Weather View 32 v70,2013-04-13 11:09:00,
2013-04-13 07:14:00,35.0,-29.2,29.83,ENE,67,5.0,8.0,5,0.00,,,0.05,Weather View 32 v70,2013-04-13 11:14:00,
2013-04-13 07:19:00,35.0,-23.0,29.83,ENE,67,3.0,8.0,7,0.00,,,0.05,Weather View 32 v70,2013-04-13 11:19:00,
2013-04-13 07:24:00,35.0,-25.9,29.83,East,90,2.0,8.0,6,0.00,,,0.05,Weather View 32 v70,2013-04-13 11:24:00,
2013-04-13 07:29:00,35.0,-23.0,29.83,ENE,67,2.0,8.0,7,0.00,,,0.05,Weather View 32 v70,2013-04-13 11:29:00,
2013-04-13 07:34:00,35.0,-18.2,29.83,ENE,67,1.0,8.0,9,0.00,,,0.05,Weather View 32 v70,2013-04-13 11:34:00,
2013-04-13 07:39:00,35.0,-20.4,29.83,ENE,67,2.0,8.0,8,0.00,,,0.05,Weather View 32 v70,2013-04-13 11:39:00,
2013-04-13 07:44:00,35.0,-18.2,29.83,NE,45,4.0,8.0,9,0.00,,,0.05,Weather View 32 v70,2013-04-13 11:44:00,
2013-04-13 07:49:00,35.0,-16.1,29.83,East,90,1.0,8.0,10,0.00,,,0.05,Weather View 32 v70,2013-04-13 11:49:00,
2013-04-13 07:54:00,35.0,-14.3,29.83,East,90,1.0,7.0,11,0.00,,,0.05,Weather View 32 v70,2013-04-13 11:54:00,
2013-04-13 07:59:00,35.0,-16.1,29.83,East,90,6.0,7.0,10,0.00,,,0.05,Weather View 32 v70,2013-04-13 11:59:00,
2013-04-13 08:04:00,35.0,-18.2,29.84,ESE,112,1.0,7.0,9,0.00,,,0.05,Weather View 32 v70,2013-04-13 12:04:00,
2013-04-13 08:09:00,35.0,-14.3,29.84,ENE,67,0.0,7.0,11,0.00,,,0.05,Weather View 32 v70,2013-04-13 12:09:00,
2013-04-13 08:14:00,35.0,-12.5,29.83,ENE,67,4.0,7.0,12,0.00,,,0.05,Weather View 32 v70,2013-04-13 12:14:00,
2013-04-13 08:19:00,35.0,-9.4,29.83,ENE,67,4.0,7.0,14,0.00,,,0.05,Weather View 32 v70,2013-04-13 12:19:00,
2013-04-13 08:24:00,35.0,-9.4,29.83,WSW,247,3.0,7.0,14,0.00,,,0.05,Weather View 32 v70,2013-04-13 12:24:00,
2013-04-13 08:29:00,35.0,-6.7,29.84,ENE,67,2.0,7.0,16,0.00,,,0.05,Weather View 32 v70,2013-04-13 12:29:00,
2013-04-13 08:34:00,36.0,-5.9,29.84,East,90,1.0,7.0,16,0.00,,,0.05,Weather View 32 v70,2013-04-13 12:34:00,
2013-04-13 08:39:00,36.0,-4.6,29.84,ENE,67,2.0,7.0,17,0.00,,,0.05,Weather View 32 v70,2013-04-13 12:39:00,
2013-04-13 08:44:00,36.0,-4.6,29.84,ENE,67,3.0,7.0,17,0.00,,,0.05,Weather View 32 v70,2013-04-13 12:44:00,
2013-04-13 08:49:00,36.0,-2.3,29.84,NE,45,3.0,7.0,19,0.00,,,0.05,Weather View 32 v70,2013-04-13 12:49:00,
2013-04-13 08:54:00,36.0,3.6,29.84,NE,45,3.0,7.0,25,0.00,,,0.05,Weather View 32 v70,2013-04-13 12:54:00,
2013-04-13 09:00:00,37.0,3.5,29.84,ENE,67,2.0,7.0,24,0.00,,,0.05,Weather View 32 v70,2013-04-13 13:00:00,
2013-04-13 09:05:00,37.0,3.5,29.85,ENE,67,5.0,7.0,24,0.00,,,0.05,Weather View 32 v70,2013-04-13 13:05:00,
2013-04-13 09:10:00,37.0,5.3,29.85,ENE,67,3.0,7.0,26,0.00,,,0.05,Weather View 32 v70,2013-04-13 13:10:00,
2013-04-13 09:15:00,37.0,6.1,29.85,East,90,2.0,7.0,27,0.00,,,0.05,Weather View 32 v70,2013-04-13 13:15:00,
2013-04-13 09:20:00,38.0,8.5,29.84,East,90,2.0,7.0,29,0.00,,,0.05,Weather View 32 v70,2013-04-13 13:20:00,
2013-04-13 09:25:00,38.0,10.0,29.85,ENE,67,5.0,7.0,31,0.00,,,0.05,Weather View 32 v70,2013-04-13 13:25:00,
2013-04-13 09:30:00,38.0,12.1,29.85,ENE,67,1.0,7.0,34,0.00,,,0.05,Weather View 32 v70,2013-04-13 13:30:00,
2013-04-13 09:36:00,38.0,10.7,29.85,ENE,67,0.0,7.0,32,0.00,,,0.05,Weather View 32 v70,2013-04-13 13:36:00,
2013-04-13 09:41:00,38.0,14.0,29.85,ENE,67,3.0,7.0,37,0.00,,,0.05,Weather View 32 v70,2013-04-13 13:41:00,
2013-04-13 09:46:00,38.0,14.0,29.85,ESE,112,1.0,7.0,37,0.00,,,0.05,Weather View 32 v70,2013-04-13 13:46:00,
2013-04-13 09:51:00,38.0,13.4,29.85,ENE,67,2.0,7.0,36,0.00,,,0.05,Weather View 32 v70,2013-04-13 13:51:00,
2013-04-13 09:57:00,39.0,11.6,29.86,ENE,67,0.0,7.0,32,0.00,,,0.05,Weather View 32 v70,2013-04-13 13:57:00,
2013-04-13 10:02:00,39.0,14.9,29.86,ENE,67,2.0,7.0,37,0.00,,,0.05,Weather View 32 v70,2013-04-13 14:02:00,
2013-04-13 10:07:00,39.0,14.9,29.86,NE,45,0.0,7.0,37,0.00,,,0.05,Weather View 32 v70,2013-04-13 14:07:00,
2013-04-13 10:12:00,39.0,16.1,29.86,SSW,202,0.0,7.0,39,0.00,,,0.05,Weather View 32 v70,2013-04-13 14:12:00,
2013-04-13 10:17:00,39.0,18.4,29.87,ENE,67,5.0,7.0,43,0.00,,,0.05,Weather View 32 v70,2013-04-13 14:17:00,
2013-04-13 10:22:00,40.0,18.7,29.86,ENE,67,3.0,7.0,42,0.00,,,0.05,Weather View 32 v70,2013-04-13 14:22:00,
2013-04-13 10:27:00,40.0,19.8,29.86,ENE,67,0.0,7.0,44,0.00,,,0.05,Weather View 32 v70,2013-04-13 14:27:00,
2013-04-13 10:32:00,40.0,18.7,29.87,WSW,247,0.0,7.0,42,0.00,,,0.05,Weather View 32 v70,2013-04-13 14:32:00,
2013-04-13 10:37:00,40.0,19.8,29.87,East,90,1.0,7.0,44,0.00,,,0.05,Weather View 32 v70,2013-04-13 14:37:00,
2013-04-13 10:43:00,40.0,19.8,29.87,ENE,67,3.0,7.0,44,0.00,,,0.05,Weather View 32 v70,2013-04-13 14:43:00,
2013-04-13 10:48:00,40.0,19.8,29.87,SW,225,0.0,7.0,44,0.00,,,0.05,Weather View 32 v70,2013-04-13 14:48:00,
2013-04-13 10:53:00,41.0,21.3,29.87,East,90,3.0,7.0,45,0.00,,,0.05,Weather View 32 v70,2013-04-13 14:53:00,
2013-04-13 10:58:00,41.0,24.7,29.87,West,270,4.0,7.0,52,0.00,,,0.05,Weather View 32 v70,2013-04-13 14:58:00,
2013-04-13 11:03:00,41.0,20.7,29.87,SSE,157,1.0,7.0,44,0.00,,,0.05,Weather View 32 v70,2013-04-13 15:03:00,
2013-04-13 11:08:00,42.0,22.7,29.87,South,180,1.0,7.0,46,0.00,,,0.05,Weather View 32 v70,2013-04-13 15:08:00,
2013-04-13 11:13:00,43.0,24.1,29.87,ENE,67,1.0,7.0,47,0.00,,,0.05,Weather View 32 v70,2013-04-13 15:13:00,
2013-04-13 11:18:00,43.0,24.1,29.87,West,270,1.0,7.0,47,0.00,,,0.05,Weather View 32 v70,2013-04-13 15:18:00,
2013-04-13 11:23:00,45.0,27.5,29.87,ENE,67,2.0,7.0,50,0.00,,,0.05,Weather View 32 v70,2013-04-13 15:23:00,
2013-04-13 11:28:00,45.0,32.7,29.87,ENE,67,5.0,6.0,62,0.00,,,0.05,Weather View 32 v70,2013-04-13 15:28:00,
2013-04-13 11:33:00,44.0,28.8,29.88,East,90,1.0,7.0,55,0.00,,,0.05,Weather View 32 v70,2013-04-13 15:33:00,
2013-04-13 11:38:00,44.0,31.0,29.88,WNW,292,3.0,7.0,60,0.00,,,0.05,Weather View 32 v70,2013-04-13 15:38:00,
2013-04-13 11:43:00,45.0,32.7,29.88,ENE,67,3.0,7.0,62,0.00,,,0.05,Weather View 32 v70,2013-04-13 15:43:00,
2013-04-13 11:48:00,45.0,30.2,29.88,West,270,0.0,7.0,56,0.00,,,0.05,Weather View 32 v70,2013-04-13 15:48:00,
2013-04-13 11:53:00,45.0,33.5,29.88,ENE,67,5.0,7.0,64,0.00,,,0.05,Weather View 32 v70,2013-04-13 15:53:00,
2013-04-13 11:59:00,46.0,32.9,29.87,North,360,0.0,7.0,60,0.00,,,0.05,Weather View 32 v70,2013-04-13 15:59:00,
2013-04-13 12:04:00,47.0,34.6,29.87,East,90,0.0,7.0,62,0.00,,,0.05,Weather View 32 v70,2013-04-13 16:04:00,
2013-04-13 12:09:00,48.0,39.4,29.87,WNW,292,6.0,7.0,72,0.00,,,0.05,Weather View 32 v70,2013-04-13 16:09:00,
2013-04-13 12:14:00,48.0,36.0,29.88,South,180,0.0,8.0,63,0.00,,,0.05,Weather View 32 v70,2013-04-13 16:14:00,
2013-04-13 12:19:00,49.0,36.5,29.88,ENE,67,7.0,8.0,62,0.00,,,0.05,Weather View 32 v70,2013-04-13 16:19:00,
2013-04-13 12:24:00,49.0,38.9,29.88,West,270,2.0,8.0,68,0.00,,,0.05,Weather View 32 v70,2013-04-13 16:24:00,
2013-04-13 12:29:00,50.0,42.0,29.88,South,180,3.0,8.0,74,0.00,,,0.05,Weather View 32 v70,2013-04-13 16:29:00,
2013-04-13 12:34:00,50.0,43.4,29.87,East,90,3.0,8.0,78,0.00,,,0.05,Weather View 32 v70,2013-04-13 16:34:00,
2013-04-13 12:39:00,49.0,39.6,29.87,SE,135,1.0,8.0,70,0.00,,,0.05,Weather View 32 v70,2013-04-13 16:39:00,
2013-04-13 12:44:00,51.0,41.5,29.87,SW,225,0.0,8.0,70,0.00,,,0.05,Weather View 32 v70,2013-04-13 16:44:00,
2013-04-13 12:49:00,52.0,45.0,29.87,SSW,202,2.0,8.0,77,0.00,,,0.05,Weather View 32 v70,2013-04-13 16:49:00,
2013-04-13 12:54:00,52.0,46.0,29.87,WSW,247,2.0,8.0,80,0.00,,,0.05,Weather View 32 v70,2013-04-13 16:54:00,
2013-04-13 12:59:00,53.0,45.3,29.87,WNW,292,0.0,8.0,75,0.00,,,0.05,Weather View 32 v70,2013-04-13 16:59:00,
2013-04-13 13:04:00,52.0,44.3,29.87,ENE,67,6.0,8.0,75,0.01,,,0.06,Weather View 32 v70,2013-04-13 17:04:00,
2013-04-13 13:10:00,52.0,43.6,29.87,ENE,67,4.0,7.0,73,0.01,,,0.06,Weather View 32 v70,2013-04-13 17:10:00,
2013-04-13 13:15:00,53.0,43.8,29.87,ENE,67,6.0,8.0,71,0.01,,,0.06,Weather View 32 v70,2013-04-13 17:15:00,
2013-04-13 13:20:00,52.0,45.0,29.87,East,90,2.0,8.0,77,0.01,,,0.06,Weather View 32 v70,2013-04-13 17:20:00,
2013-04-13 13:25:00,52.0,44.7,29.87,ENE,67,1.0,8.0,76,0.01,,,0.06,Weather View 32 v70,2013-04-13 17:25:00,
2013-04-13 13:30:00,53.0,45.6,29.87,WNW,292,1.0,8.0,76,0.01,,,0.06,Weather View 32 v70,2013-04-13 17:30:00,
2013-04-13 13:35:00,53.0,45.3,29.87,WNW,292,6.0,9.0,75,0.01,,,0.06,Weather View 32 v70,2013-04-13 17:35:00,
2013-04-13 13:40:00,53.0,45.3,29.87,East,90,1.0,9.0,75,0.01,,,0.06,Weather View 32 v70,2013-04-13 17:40:00,
2013-04-13 13:45:00,54.0,45.5,29.86,West,270,3.0,9.0,73,0.01,,,0.06,Weather View 32 v70,2013-04-13 17:45:00,
2013-04-13 13:50:00,54.0,42.1,29.87,East,90,6.0,9.0,64,0.01,,,0.06,Weather View 32 v70,2013-04-13 17:50:00,
2013-04-13 13:55:00,53.0,39.5,29.86,ENE,67,5.0,10.0,60,0.01,,,0.06,Weather View 32 v70,2013-04-13 17:55:00,
2013-04-13 14:00:00,52.0,36.8,29.86,ENE,67,6.0,10.0,56,0.01,,,0.06,Weather View 32 v70,2013-04-13 18:00:00,
2013-04-13 14:05:00,53.0,39.9,29.86,NE,45,4.0,10.0,61,0.00,,,0.06,Weather View 32 v70,2013-04-13 18:05:00,
2013-04-13 14:10:00,54.0,39.5,29.86,ENE,67,6.0,10.0,58,0.00,,,0.06,Weather View 32 v70,2013-04-13 18:10:00,
2013-04-13 14:17:00,53.0,37.7,29.85,ENE,67,4.0,10.0,56,0.00,,,0.06,Weather View 32 v70,2013-04-13 18:17:00,
2013-04-13 14:22:00,53.0,38.6,29.85,NNE,22,2.0,10.0,58,0.00,,,0.06,Weather View 32 v70,2013-04-13 18:22:00,
2013-04-13 14:27:00,54.0,39.5,29.86,ENE,67,6.0,10.0,58,0.00,,,0.06,Weather View 32 v70,2013-04-13 18:27:00,
2013-04-13 14:32:00,53.0,39.5,29.86,West,270,2.0,10.0,60,0.00,,,0.06,Weather View 32 v70,2013-04-13 18:32:00,
2013-04-13 14:37:00,53.0,38.1,29.86,NE,45,4.0,10.0,57,0.00,,,0.06,Weather View 32 v70,2013-04-13 18:37:00,
2013-04-13 14:42:00,52.0,38.1,29.86,ENE,67,2.0,10.0,59,0.00,,,0.06,Weather View 32 v70,2013-04-13 18:42:00,
2013-04-13 14:47:00,53.0,39.0,29.86,ENE,67,2.0,10.0,59,0.00,,,0.06,Weather View 32 v70,2013-04-13 18:47:00,
2013-04-13 14:52:00,53.0,37.7,29.86,West,270,3.0,10.0,56,0.00,,,0.06,Weather View 32 v70,2013-04-13 18:52:00,
2013-04-13 14:57:00,53.0,37.7,29.86,WNW,292,2.0,10.0,56,0.00,,,0.06,Weather View 32 v70,2013-04-13 18:57:00,
2013-04-13 15:02:00,52.0,37.7,29.86,East,90,3.0,9.0,58,0.00,,,0.06,Weather View 32 v70,2013-04-13 19:02:00,
2013-04-13 15:07:00,52.0,39.4,29.86,SW,225,0.0,9.0,62,0.00,,,0.06,Weather View 32 v70,2013-04-13 19:07:00,
2013-04-13 15:12:00,52.0,38.9,29.86,WNW,292,1.0,9.0,61,0.00,,,0.06,Weather View 32 v70,2013-04-13 19:12:00,
2013-04-13 15:17:00,52.0,38.1,29.86,WNW,292,3.0,9.0,59,0.00,,,0.06,Weather View 32 v70,2013-04-13 19:17:00,
2013-04-13 15:22:00,52.0,39.4,29.86,South,180,0.0,9.0,62,0.00,,,0.06,Weather View 32 v70,2013-04-13 19:22:00,
2013-04-13 15:27:00,52.0,38.1,29.86,SSW,202,0.0,9.0,59,0.00,,,0.06,Weather View 32 v70,2013-04-13 19:27:00,
2013-04-13 15:32:00,52.0,37.2,29.86,West,270,3.0,9.0,57,0.00,,,0.06,Weather View 32 v70,2013-04-13 19:32:00,
2013-04-13 15:37:00,52.0,36.8,29.86,West,270,3.0,9.0,56,0.00,,,0.06,Weather View 32 v70,2013-04-13 19:37:00,
2013-04-13 15:42:00,52.0,36.3,29.86,ENE,67,3.0,7.0,55,0.00,,,0.06,Weather View 32 v70,2013-04-13 19:42:00,
2013-04-13 15:47:00,52.0,37.7,29.86,West,270,3.0,7.0,58,0.00,,,0.06,Weather View 32 v70,2013-04-13 19:47:00,
2013-04-13 15:52:00,52.0,36.8,29.86,West,270,4.0,7.0,56,0.00,,,0.06,Weather View 32 v70,2013-04-13 19:52:00,
2013-04-13 15:57:00,52.0,36.8,29.86,WSW,247,1.0,7.0,56,0.00,,,0.06,Weather View 32 v70,2013-04-13 19:57:00,
2013-04-13 16:02:00,52.0,35.8,29.86,West,270,3.0,8.0,54,0.00,,,0.06,Weather View 32 v70,2013-04-13 20:02:00,
2013-04-13 16:07:00,52.0,36.8,29.86,West,270,0.0,8.0,56,0.00,,,0.06,Weather View 32 v70,2013-04-13 20:07:00,
2013-04-13 16:12:00,52.0,36.8,29.85,ENE,67,1.0,8.0,56,0.00,,,0.06,Weather View 32 v70,2013-04-13 20:12:00,
2013-04-13 16:17:00,52.0,36.8,29.86,WNW,292,0.0,8.0,56,0.00,,,0.06,Weather View 32 v70,2013-04-13 20:17:00,
2013-04-13 16:22:00,52.0,36.3,29.85,WNW,292,1.0,8.0,55,0.00,,,0.06,Weather View 32 v70,2013-04-13 20:22:00,
2013-04-13 16:27:00,52.0,36.8,29.86,SSW,202,0.0,8.0,56,0.00,,,0.06,Weather View 32 v70,2013-04-13 20:27:00,
2013-04-13 16:32:00,52.0,36.8,29.86,WNW,292,0.0,8.0,56,0.00,,,0.06,Weather View 32 v70,2013-04-13 20:32:00,
2013-04-13 16:37:00,52.0,36.8,29.87,West,270,0.0,8.0,56,0.00,,,0.06,Weather View 32 v70,2013-04-13 20:37:00,
2013-04-13 16:43:00,53.0,37.7,29.87,SSW,202,1.0,8.0,56,0.00,,,0.06,Weather View 32 v70,2013-04-13 20:43:00,
2013-04-13 16:48:00,53.0,37.7,29.87,South,180,1.0,8.0,56,0.00,,,0.06,Weather View 32 v70,2013-04-13 20:48:00,
2013-04-13 16:53:00,53.0,37.7,29.87,South,180,3.0,8.0,56,0.42,,,0.06,Weather View 32 v70,2013-04-13 20:53:00,
2013-04-13 16:58:00,53.0,37.2,29.87,WSW,247,2.0,8.0,55,0.00,,,0.06,Weather View 32 v70,2013-04-13 20:58:00,
2013-04-13 17:03:00,53.0,36.8,29.88,NNW,337,0.0,7.0,54,0.00,,,0.06,Weather View 32 v70,2013-04-13 21:03:00,
2013-04-13 17:08:00,53.0,37.7,29.88,SW,225,0.0,7.0,56,0.00,,,0.06,Weather View 32 v70,2013-04-13 21:08:00,
2013-04-13 17:13:00,53.0,37.2,29.88,SSW,202,0.0,7.0,55,0.00,,,0.06,Weather View 32 v70,2013-04-13 21:13:00,
2013-04-13 17:18:00,52.0,36.3,29.88,SSW,202,0.0,7.0,55,0.00,,,0.06,Weather View 32 v70,2013-04-13 21:18:00,
2013-04-13 17:23:00,52.0,36.3,29.88,ENE,67,0.0,7.0,55,0.00,,,0.06,Weather View 32 v70,2013-04-13 21:23:00,
2013-04-13 17:28:00,52.0,37.2,29.89,ENE,67,0.0,6.0,57,0.00,,,0.06,Weather View 32 v70,2013-04-13 21:28:00,
2013-04-13 17:33:00,52.0,36.8,29.89,West,270,0.0,6.0,56,0.00,,,0.06,Weather View 32 v70,2013-04-13 21:33:00,
2013-04-13 17:38:00,52.0,37.7,29.89,South,180,1.0,6.0,58,0.00,,,0.06,Weather View 32 v70,2013-04-13 21:38:00,
2013-04-13 17:43:00,52.0,38.1,29.89,South,180,0.0,5.0,59,0.00,,,0.06,Weather View 32 v70,2013-04-13 21:43:00,
2013-04-13 17:48:00,52.0,37.7,29.89,South,180,0.0,5.0,58,0.00,,,0.06,Weather View 32 v70,2013-04-13 21:48:00,
2013-04-13 17:53:00,52.0,37.7,29.89,South,180,0.0,4.0,58,0.00,,,0.06,Weather View 32 v70,2013-04-13 21:53:00,
2013-04-13 17:58:00,52.0,37.7,29.89,South,180,0.0,4.0,58,0.00,,,0.06,Weather View 32 v70,2013-04-13 21:58:00,
2013-04-13 18:03:00,52.0,38.1,29.89,South,180,0.0,4.0,59,0.00,,,0.06,Weather View 32 v70,2013-04-13 22:03:00,
2013-04-13 18:08:00,52.0,38.1,29.89,South,180,0.0,4.0,59,0.00,,,0.06,Weather View 32 v70,2013-04-13 22:08:00,
2013-04-13 18:13:00,52.0,37.7,29.89,SW,225,0.0,4.0,58,0.00,,,0.06,Weather View 32 v70,2013-04-13 22:13:00,
2013-04-13 18:18:00,52.0,38.1,29.89,SW,225,1.0,4.0,59,0.00,,,0.06,Weather View 32 v70,2013-04-13 22:18:00,
2013-04-13 18:23:00,52.0,37.7,29.89,SW,225,0.0,4.0,58,0.00,,,0.06,Weather View 32 v70,2013-04-13 22:23:00,
2013-04-13 18:28:00,51.0,37.2,29.89,SW,225,0.0,4.0,59,0.00,,,0.06,Weather View 32 v70,2013-04-13 22:28:00,
2013-04-13 18:33:00,51.0,38.0,29.90,SW,225,0.0,4.0,61,0.00,,,0.06,Weather View 32 v70,2013-04-13 22:33:00,
2013-04-13 18:38:00,51.0,40.0,29.90,SW,225,0.0,4.0,66,0.00,,,0.06,Weather View 32 v70,2013-04-13 22:38:00,
2013-04-13 18:43:00,51.0,39.2,29.90,SW,225,0.0,4.0,64,0.00,,,0.06,Weather View 32 v70,2013-04-13 22:43:00,
2013-04-13 18:48:00,51.0,39.2,29.90,SW,225,0.0,3.0,64,0.00,,,0.06,Weather View 32 v70,2013-04-13 22:48:00,
2013-04-13 18:53:00,51.0,39.2,29.90,SW,225,0.0,3.0,64,0.00,,,0.06,Weather View 32 v70,2013-04-13 22:53:00,
2013-04-13 18:58:00,50.0,39.5,29.90,SW,225,0.0,3.0,67,0.00,,,0.06,Weather View 32 v70,2013-04-13 22:58:00,
2013-04-13 19:03:00,50.0,39.8,29.90,SW,225,0.0,3.0,68,0.00,,,0.06,Weather View 32 v70,2013-04-13 23:03:00,
2013-04-13 19:08:00,50.0,40.6,29.90,SW,225,0.0,3.0,70,0.00,,,0.06,Weather View 32 v70,2013-04-13 23:08:00,
2013-04-13 19:13:00,50.0,42.4,29.90,SW,225,0.0,1.0,75,0.00,,,0.06,Weather View 32 v70,2013-04-13 23:13:00,
2013-04-13 19:18:00,50.0,43.4,29.90,SW,225,1.0,1.0,78,0.00,,,0.06,Weather View 32 v70,2013-04-13 23:18:00,
2013-04-13 19:23:00,50.0,46.6,29.90,SW,225,0.0,2.0,88,0.00,,,0.06,Weather View 32 v70,2013-04-13 23:23:00,
2013-04-13 19:28:00,49.0,45.6,29.90,SW,225,0.0,2.0,88,0.00,,,0.06,Weather View 32 v70,2013-04-13 23:28:00,
2013-04-13 19:33:00,49.0,46.8,29.90,SW,225,0.0,2.0,92,0.00,,,0.06,Weather View 32 v70,2013-04-13 23:33:00,
2013-04-13 19:38:00,49.0,46.8,29.90,SW,225,0.0,2.0,92,0.00,,,0.06,Weather View 32 v70,2013-04-13 23:38:00,
2013-04-13 19:43:00,49.0,46.5,29.90,SSW,202,0.0,3.0,91,0.00,,,0.06,Weather View 32 v70,2013-04-13 23:43:00,
2013-04-13 19:48:00,49.0,45.6,29.91,NNW,337,0.0,3.0,88,0.00,,,0.06,Weather View 32 v70,2013-04-13 23:48:00,
2013-04-13 19:53:00,48.0,39.7,29.91,NE,45,2.0,4.0,73,0.00,,,0.06,Weather View 32 v70,2013-04-13 23:53:00,
2013-04-13 19:58:00,48.0,36.0,29.91,ENE,67,2.0,6.0,63,0.00,,,0.06,Weather View 32 v70,2013-04-13 23:58:00,
2013-04-13 20:03:00,48.0,36.0,29.91,ENE,67,3.0,6.0,63,0.00,,,0.06,Weather View 32 v70,2013-04-14 00:03:00,
2013-04-13 20:08:00,48.0,34.8,29.91,ENE,67,0.0,6.0,60,0.00,,,0.06,Weather View 32 v70,2013-04-14 00:08:00,
2013-04-13 20:13:00,48.0,35.6,29.92,ENE,67,0.0,6.0,62,0.00,,,0.06,Weather View 32 v70,2013-04-14 00:13:00,
2013-04-13 20:18:00,47.0,34.6,29.92,ENE,67,0.0,6.0,62,0.00,,,0.06,Weather View 32 v70,2013-04-14 00:18:00,
2013-04-13 20:23:00,47.0,33.0,29.93,ENE,67,2.0,6.0,58,0.00,,,0.06,Weather View 32 v70,2013-04-14 00:23:00,
2013-04-13 20:28:00,47.0,31.2,29.93,ENE,67,2.0,6.0,54,0.00,,,0.06,Weather View 32 v70,2013-04-14 00:28:00,
2013-04-13 20:33:00,47.0,31.6,29.93,ENE,67,0.0,6.0,55,0.00,,,0.06,Weather View 32 v70,2013-04-14 00:33:00,
2013-04-13 20:38:00,47.0,32.1,29.93,ENE,67,0.0,6.0,56,0.00,,,0.06,Weather View 32 v70,2013-04-14 00:38:00,
2013-04-13 20:43:00,46.0,30.3,29.93,ENE,67,0.0,6.0,54,0.00,,,0.06,Weather View 32 v70,2013-04-14 00:43:00,
2013-04-13 20:48:00,46.0,29.8,29.93,ENE,67,1.0,6.0,53,0.00,,,0.06,Weather View 32 v70,2013-04-14 00:48:00,
2013-04-13 20:53:00,46.0,28.4,29.93,ENE,67,2.0,6.0,50,0.00,,,0.06,Weather View 32 v70,2013-04-14 00:53:00,
2013-04-13 20:58:00,46.0,27.4,29.93,ENE,67,1.0,6.0,48,0.00,,,0.06,Weather View 32 v70,2013-04-14 00:58:00,
2013-04-13 21:04:00,46.0,28.4,29.93,ENE,67,1.0,4.0,50,0.00,,,0.06,Weather View 32 v70,2013-04-14 01:04:00,
2013-04-13 21:09:00,46.0,27.4,29.93,ENE,67,0.0,3.0,48,0.00,,,0.06,Weather View 32 v70,2013-04-14 01:09:00,
2013-04-13 21:14:00,46.0,28.4,29.93,ENE,67,0.0,4.0,50,0.00,,,0.06,Weather View 32 v70,2013-04-14 01:14:00,
2013-04-13 21:19:00,45.0,27.0,29.93,ENE,67,2.0,4.0,49,0.00,,,0.06,Weather View 32 v70,2013-04-14 01:19:00,
2013-04-13 21:24:00,45.0,26.5,29.93,ENE,67,2.0,4.0,48,0.00,,,0.06,Weather View 32 v70,2013-04-14 01:24:00,
2013-04-13 21:29:00,45.0,26.5,29.93,ENE,67,0.0,4.0,48,0.00,,,0.06,Weather View 32 v70,2013-04-14 01:29:00,
2013-04-13 21:34:00,45.0,26.0,29.93,ENE,67,0.0,4.0,47,0.00,,,0.06,Weather View 32 v70,2013-04-14 01:34:00,
2013-04-13 21:39:00,45.0,25.4,29.93,ENE,67,1.0,4.0,46,0.00,,,0.06,Weather View 32 v70,2013-04-14 01:39:00,
2013-04-13 21:44:00,45.0,26.0,29.93,ENE,67,0.0,4.0,47,0.00,,,0.06,Weather View 32 v70,2013-04-14 01:44:00,
2013-04-13 21:49:00,45.0,26.5,29.93,ENE,67,0.0,4.0,48,0.00,,,0.06,Weather View 32 v70,2013-04-14 01:49:00,
2013-04-13 21:54:00,45.0,26.0,29.93,ENE,67,0.0,4.0,47,0.00,,,0.06,Weather View 32 v70,2013-04-14 01:54:00,
2013-04-13 21:59:00,45.0,26.0,29.93,ENE,67,0.0,4.0,47,0.00,,,0.06,Weather View 32 v70,2013-04-14 01:59:00,
2013-04-13 22:04:00,45.0,26.5,29.93,ENE,67,0.0,4.0,48,0.00,,,0.06,Weather View 32 v70,2013-04-14 02:04:00,
2013-04-13 22:09:00,45.0,24.9,29.94,ENE,67,1.0,4.0,45,0.00,,,0.06,Weather View 32 v70,2013-04-14 02:09:00,
2013-04-13 22:14:00,45.0,23.8,29.94,ENE,67,0.0,4.0,43,0.00,,,0.06,Weather View 32 v70,2013-04-14 02:14:00,
2013-04-13 22:19:00,44.0,22.9,29.94,ENE,67,0.0,4.0,43,0.00,,,0.06,Weather View 32 v70,2013-04-14 02:19:00,
2013-04-13 22:24:00,44.0,23.5,29.94,ENE,67,0.0,4.0,44,0.00,,,0.06,Weather View 32 v70,2013-04-14 02:24:00,
2013-04-13 22:29:00,44.0,23.5,29.94,ENE,67,0.0,4.0,44,0.00,,,0.06,Weather View 32 v70,2013-04-14 02:29:00,
2013-04-13 22:34:00,44.0,22.3,29.94,ENE,67,0.0,3.0,42,0.00,,,0.06,Weather View 32 v70,2013-04-14 02:34:00,
2013-04-13 22:39:00,44.0,22.3,29.93,ENE,67,0.0,3.0,42,0.00,,,0.06,Weather View 32 v70,2013-04-14 02:39:00,
2013-04-13 22:44:00,44.0,21.8,29.94,ENE,67,0.0,2.0,41,0.00,,,0.06,Weather View 32 v70,2013-04-14 02:44:00,
2013-04-13 22:49:00,44.0,21.8,29.93,ENE,67,0.0,2.0,41,0.00,,,0.06,Weather View 32 v70,2013-04-14 02:49:00,
2013-04-13 22:54:00,44.0,21.2,29.93,ENE,67,0.0,2.0,40,0.00,,,0.06,Weather View 32 v70,2013-04-14 02:54:00,
2013-04-13 22:59:00,44.0,21.2,29.93,ENE,67,0.0,2.0,40,0.00,,,0.06,Weather View 32 v70,2013-04-14 02:59:00,
2013-04-13 23:04:00,44.0,21.2,29.93,ENE,67,0.0,2.0,40,0.00,,,0.06,Weather View 32 v70,2013-04-14 03:04:00,
2013-04-13 23:09:00,44.0,20.0,29.94,ENE,67,0.0,2.0,38,0.00,,,0.06,Weather View 32 v70,2013-04-14 03:09:00,
2013-04-13 23:14:00,44.0,17.4,29.94,ENE,67,0.0,1.0,34,0.00,,,0.06,Weather View 32 v70,2013-04-14 03:14:00,
2013-04-13 23:19:00,44.0,16.7,29.94,ENE,67,0.0,1.0,33,0.00,,,0.06,Weather View 32 v70,2013-04-14 03:19:00,
2013-04-13 23:24:00,44.0,16.7,29.94,ENE,67,0.0,1.0,33,0.00,,,0.06,Weather View 32 v70,2013-04-14 03:24:00,
2013-04-13 23:29:00,44.0,16.7,29.94,ENE,67,0.0,1.0,33,0.00,,,0.06,Weather View 32 v70,2013-04-14 03:29:00,
2013-04-13 23:34:00,44.0,14.5,29.94,ENE,67,0.0,1.0,30,0.00,,,0.06,Weather View 32 v70,2013-04-14 03:34:00,
2013-04-13 23:39:00,44.0,13.7,29.95,ENE,67,0.0,1.0,29,0.00,,,0.06,Weather View 32 v70,2013-04-14 03:39:00,
2013-04-13 23:44:00,44.0,7.5,29.95,ENE,67,0.0,2.0,22,0.00,,,0.06,Weather View 32 v70,2013-04-14 03:44:00,
2013-04-13 23:49:00,44.0,18.1,29.95,WNW,292,5.0,12.0,35,0.00,,,0.06,Weather View 32 v70,2013-04-14 03:49:00,
2013-04-13 23:54:00,45.0,19.0,29.95,West,270,2.0,12.0,35,0.00,,,0.06,Weather View 32 v70,2013-04-14 03:54:00,
2013-04-13 23:59:00,45.0,19.6,29.96,WNW,292,0.0,12.0,36,-0.06,,,0.00,Weather View 32 v70,2013-04-14 03:59:00,